GFSNGP_850_temp_102.txt.gz
Temp
9 11 11 10 11 10 9 9 10 12 13 13 14 14 13 13 13 12 12 11 11 12 13 13 12 13 11 13 16 15 14 13 12 9 9 9 9 10 10 10 10 10 10 10
9 10 10 10 11 11 11 9 10 12 13 14 14 12 11 12 12 11 10 10 10 10 12 12 11 11 12 13 11 13 14 14 14 13 11 9 9 9 9 9 9 10 9 9
7 8 9 8 11 11 12 12 11 11 10 13 12 11 11 10 11 10 10 10 8 10 11 11 12 13 12 12 13 12 10 12 13 13 13 12 11 9 9 9 9 9 9 10
5 7 7 10 12 12 11 11 10 10 11 11 11 11 10 10 10 9 9 9 9 9 10 12 12 14 14 12 12 12 12 11 11 12 13 12 11 10 9 9 9 9 9 10
4 4 7 11 10 10 11 9 10 10 10 11 11 11 10 9 9 9 9 8 8 9 9 10 11 12 14 15 16 15 15 13 12 11 12 12 12 11 10 9 9 9 9 9
3 5 5 10 10 11 11 8 10 10 10 9 10 7 8 8 7 8 8 8 8 8 8 9 10 11 12 13 15 11 11 11 11 11 11 11 11 11 10 9 9 9 9 9
3 3 6 9 10 11 9 8 11 10 10 10 8 8 8 7 8 7 7 8 8 8 8 8 8 8 9 10 12 12 10 10 10 11 10 10 11 10 10 10 10 9 9 8
2 3 5 10 10 10 9 10 11 10 11 10 10 10 8 8 7 7 7 7 8 8 7 8 7 6 6 7 9 10 9 9 10 10 10 10 10 10 10 10 9 8 6 5
5 5 8 9 9 10 11 10 10 10 9 10 9 8 7 6 5 5 4 4 4 3 4 5 6 4 4 4 5 6 7 8 8 9 9 9 9 9 8 6 5 4 2 -1
6 8 7 7 9 10 10 10 9 9 9 9 8 6 6 6 6 5 3 3 2 -0 -0 1 2 2 2 3 4 5 5 6 6 6 5 5 5 5 5 2 1 -0 -3 -4
6 6 7 7 9 8 8 9 8 8 7 7 7 6 5 5 4 3 3 4 1 -1 -1 -1 0 0 1 1 1 3 4 4 2 3 3 1 0 -1 1 -2 -2 -5 -5 -4
4 4 4 5 7 7 8 7 7 8 7 6 6 4 4 1 2 1 2 2 1 -2 -2 -2 -2 -1 -1 -1 -1 0 1 1 0 -2 -1 -2 -3 -4 -4 -4 -4 -3 -3 -3
3 3 3 4 5 6 6 6 6 6 5 5 5 4 3 1 1 1 0 1 0 -2 -2 -3 -3 -3 -3 -3 -2 -1 -2 -3 -3 -3 -4 -4 -4 -4 -6 -6 -5 -5 -5 -5
2 3 2 2 2 4 4 4 4 4 3 3 3 2 1 -0 -0 0 -1 -1 -2 -3 -3 -3 -4 -5 -5 -5 -4 -3 -3 -4 -4 -5 -5 -5 -5 -4 -4 -5 -7 -9 -8 -8
1 1 1 1 3 3 3 3 3 2 1 1 1 1 0 -2 -1 -1 -2 -3 -4 -4 -4 -4 -5 -6 -6 -6 -6 -6 -6 -6 -5 -4 -5 -4 -5 -6 -7 -7 -8 -10 -11 -11
1 2 2 2 0 1 1 1 1 0 -0 0 0 -0 -1 -2 -2 -4 -5 -5 -6 -6 -6 -6 -6 -7 -7 -5 -6 -6 -6 -7 -6 -5 -6 -5 -6 -6 -7 -8 -8 -10 -10 -10
-1 -3 -3 -3 -4 -4 -3 -3 -2 -1 -2 -1 -0 -1 -1 -3 -4 -5 -6 -6 -6 -7 -7 -7 -7 -7 -7 -5 -5 -5 -5 -5 -5 -5 -6 -6 -6 -7 -7 -9 -9 -10 -11 -11
-5 -5 -5 -6 -6 -6 -4 -3 -3 -3 -3 -3 -3 -3 -4 -5 -6 -7 -7 -8 -7 -7 -7 -7 -7 -7 -6 -6 -5 -5 -6 -7 -7 -7 -7 -7 -7 -8 -9 -9 -10 -10 -12 -13
-7 -7 -7 -7 -7 -7 -6 -5 -5 -4 -4 -4 -4 -5 -6 -7 -8 -8 -9 -8 -8 -8 -9 -8 -8 -7 -7 -7 -6 -6 -7 -7 -8 -8 -9 -9 -10 -10 -10 -10 -11 -12 -12 -12
-8 -8 -8 -8 -8 -8 -8 -7 -7 -6 -6 -6 -7 -7 -8 -9 -9 -9 -10 -9 -10 -10 -10 -9 -8 -7 -8 -8 -7 -7 -7 -7 -7 -8 -9 -9 -10 -10 -11 -11 -12 -12 -12 -13
-9 -9 -9 -9 -9 -9 -9 -9 -9 -9 -9 -9 -9 -9 -10 -11 -11 -10 -10 -10 -11 -11 -10 -10 -9 -9 -9 -9 -9 -8 -8 -7 -8 -9 -9 -10 -11 -11 -12 -12 -13 -13 -14 -14
-10 -10 -10 -11 -10 -10 -11 -11 -11 -11 -11 -11 -11 -11 -11 -12 -12 -11 -11 -11 -12 -12 -11 -11 -10 -10 -10 -11 -9 -9 -10 -10 -10 -11 -11 -12 -12 -13 -13 -13 -14 -14 -14 -14
-11 -12 -12 -12 -12 -12 -13 -12 -12 -12 -12 -12 -12 -12 -12 -12 -12 -12 -12 -13 -13 -13 -12 -12 -12 -11 -11 -10 -10 -11 -11 -11 -11 -12 -12 -13 -13 -14 -14 -14 -14 -14 -15 -15
-12 -13 -13 -13 -13 -13 -13 -14 -14 -13 -13 -13 -13 -13 -13 -13 -13 -13 -13 -14 -13 -13 -13 -13 -13 -12 -11 -11 -11 -12 -12 -12 -12 -13 -13 -14 -14 -14 -14 -14 -14 -15 -15 -16
-12 -13 -14 -14 -14 -14 -14 -14 -14 -14 -14 -14 -14 -14 -14 -14 -13 -14 -15 -14 -14 -13 -13 -14 -13 -13 -12 -12 -12 -12 -13 -13 -14 -14 -14 -14 -14 -14 -15 -15 -15 -16 -16 -16
-13 -13 -14 -14 -14 -15 -15 -15 -15 -15 -15 -14 -15 -15 -15 -15 -15 -15 -15 -15 -14 -14 -14 -14 -13 -13 -13 -13 -13 -14 -14 -14 -14 -14 -15 -15 -15 -15 -15 -16 -16 -16 -16 -16
-13 -13 -14 -14 -14 -15 -15 -15 -15 -15 -15 -15 -15 -15 -15 -15 -15 -15 -15 -15 -15 -15 -14 -14 -14 -14 -14 -14 -14 -15 -15 -15 -15 -15 -15 -15 -15 -16 -16 -16 -16 -17 -17 -17

GFSNGP_850_temp_108.txt.gz
Temp
6 7 8 8 6 7 8 8 10 8 9 11 10 9 9 10 10 9 9 10 8 8 9 8 9 10 10 10 11 10 10 10 11 10 9 9 9 8 8 8 8 8 8 8
5 7 7 7 6 5 9 9 8 8 8 8 9 9 9 9 9 9 9 10 9 9 8 9 9 9 10 10 10 11 10 10 10 10 10 8 9 9 8 8 8 8 8 8
5 5 6 6 7 8 8 9 8 9 9 9 8 9 8 8 8 8 8 7 7 7 10 8 8 8 8 9 10 11 11 10 10 10 10 10 9 9 8 8 8 8 8 8
5 5 6 9 9 9 8 9 9 9 9 8 8 8 8 8 8 7 6 7 6 6 8 8 8 10 10 9 12 12 9 9 9 10 10 9 9 8 8 8 8 8 8 8
4 6 7 9 9 8 8 8 8 9 7 7 7 7 6 7 7 6 6 6 5 6 6 7 8 8 8 10 11 13 13 12 12 10 10 9 9 10 9 8 8 7 8 8
4 5 4 8 8 8 7 7 8 8 8 7 7 6 7 5 4 5 5 5 5 5 5 7 7 7 6 8 9 11 12 13 10 10 9 10 10 9 10 9 9 8 7 7
3 3 5 7 7 8 7 7 8 9 7 7 7 6 5 4 4 3 3 4 4 3 4 3 3 2 4 4 5 5 6 7 8 9 9 9 10 10 9 9 9 9 8 8
1 1 3 7 8 8 7 7 9 9 8 7 5 5 5 5 4 3 3 3 4 4 4 4 3 3 1 2 3 3 4 5 7 8 8 9 9 9 9 9 9 9 10 8
3 3 5 7 7 8 8 8 7 8 7 7 4 3 2 1 2 2 1 1 2 2 3 3 2 1 0 0 1 3 4 4 5 7 8 8 8 8 9 9 8 8 7 7
3 5 4 4 5 6 6 5 6 6 6 5 4 3 1 -0 -0 -0 1 1 1 1 2 2 3 2 1 0 1 0 1 2 4 5 5 6 6 6 6 6 6 6 5 3
3 4 4 4 4 4 4 5 5 3 4 4 4 1 1 -1 -2 -1 -1 -0 1 1 0 -1 -1 -1 -0 -0 0 1 0 0 1 2 2 2 2 2 2 2 1 1 -0 0
3 2 3 2 2 3 4 4 3 2 2 1 2 2 1 0 -1 -2 -1 -1 -1 -1 -1 -1 -1 -1 -1 -1 -2 -2 -2 -2 -3 -2 -2 -2 -2 -2 -3 -2 -2 -2 -2 -3
-1 -1 -1 -1 -1 -0 1 2 2 1 1 1 -1 -0 -0 -1 -3 -3 -3 -2 -2 -2 -3 -3 -3 -2 -2 -3 -3 -4 -4 -4 -4 -4 -5 -5 -5 -4 -6 -7 -6 -5 -4 -4
-1 -0 -1 -2 -2 -2 -1 -1 -1 -0 -1 -1 -2 -2 -2 -3 -3 -3 -3 -4 -4 -4 -4 -4 -4 -4 -5 -6 -5 -5 -5 -5 -5 -5 -5 -6 -7 -7 -7 -7 -8 -9 -7 -7
-2 -2 -3 -3 -2 -3 -2 -1 -2 -2 -3 -2 -2 -2 -3 -3 -3 -3 -4 -5 -5 -5 -5 -5 -6 -6 -7 -7 -6 -7 -6 -6 -6 -6 -6 -6 -7 -8 -7 -7 -8 -8 -8 -8
-3 -3 -4 -5 -5 -5 -5 -4 -4 -4 -3 -3 -3 -3 -4 -4 -5 -6 -6 -7 -6 -6 -7 -6 -6 -7 -7 -7 -7 -7 -7 -7 -7 -7 -7 -7 -7 -7 -7 -7 -7 -8 -8 -9
-4 -5 -6 -7 -8 -7 -7 -6 -5 -5 -4 -4 -4 -5 -5 -5 -5 -6 -8 -8 -8 -8 -8 -8 -8 -8 -7 -7 -6 -6 -7 -7 -7 -7 -7 -7 -7 -6 -6 -7 -8 -8 -9 -10
-7 -7 -7 -8 -8 -9 -9 -7 -6 -5 -5 -5 -5 -5 -5 -6 -7 -8 -9 -9 -8 -8 -8 -8 -8 -7 -6 -6 -6 -6 -7 -7 -7 -6 -7 -7 -7 -7 -7 -7 -8 -8 -9 -10
-7 -7 -8 -8 -8 -8 -8 -8 -8 -7 -6 -6 -6 -6 -6 -7 -8 -9 -9 -9 -8 -8 -9 -9 -8 -7 -7 -7 -6 -7 -7 -7 -7 -7 -7 -7 -7 -8 -8 -8 -8 -9 -10 -11
-8 -9 -9 -9 -9 -9 -9 -9 -9 -8 -8 -8 -8 -8 -8 -9 -9 -9 -10 -9 -9 -9 -10 -9 -9 -8 -8 -8 -7 -7 -7 -7 -7 -7 -7 -7 -8 -8 -9 -10 -10 -10 -11 -11
-10 -10 -10 -11 -11 -11 -11 -10 -10 -10 -10 -10 -10 -10 -10 -11 -11 -11 -10 -10 -11 -11 -10 -10 -9 -9 -9 -8 -8 -8 -8 -7 -7 -8 -8 -9 -9 -10 -10 -10 -11 -11 -12 -12
-11 -11 -12 -12 -12 -12 -12 -12 -12 -12 -12 -12 -12 -12 -12 -12 -12 -11 -11 -11 -12 -12 -11 -10 -10 -10 -10 -9 -9 -9 -8 -8 -8 -9 -9 -10 -10 -11 -11 -12 -12 -13 -13 -13
-12 -13 -13 -13 -13 -13 -13 -13 -13 -13 -13 -13 -13 -13 -13 -13 -13 -12 -12 -13 -13 -13 -12 -11 -12 -11 -11 -11 -10 -10 -10 -10 -10 -11 -11 -11 -12 -12 -12 -13 -13 -13 -14 -14
-12 -13 -13 -14 -14 -14 -13 -14 -14 -14 -14 -14 -14 -14 -14 -13 -13 -13 -14 -14 -14 -13 -13 -13 -13 -12 -12 -11 -11 -11 -11 -11 -12 -12 -12 -12 -13 -13 -13 -14 -14 -14 -15 -15
-13 -13 -13 -14 -14 -14 -15 -15 -15 -15 -15 -14 -14 -14 -14 -14 -14 -15 -15 -14 -14 -14 -13 -14 -13 -13 -13 -12 -12 -12 -12 -12 -12 -13 -13 -13 -13 -14 -14 -14 -14 -15 -15 -15
-13 -14 -14 -14 -15 -15 -15 -15 -15 -15 -15 -15 -15 -15 -15 -15 -15 -15 -15 -15 -14 -14 -14 -14 -14 -14 -14 -13 -13 -13 -13 -13 -13 -13 -14 -14 -14 -14 -14 -15 -15 -15 -15 -16
-14 -14 -14 -14 -15 -15 -15 -15 -15 -15 -15 -16 -15 -16 -16 -16 -16 -16 -15 -15 -15 -15 -15 -15 -15 -14 -14 -14 -14 -13 -13 -13 -14 -14 -14 -14 -15 -15 -15 -15 -16 -16 -16 -16

GFSNGP_850_temp_111.txt.gz
Temp
5 7 8 8 7 7 8 10 12 13 12 12 12 12 11 10 10 9 9 9 10 9 9 8 7 7 8 8 9 9 9 10 11 10 9 9 9 9 9 9 9 9 9 8
4 7 8 7 7 7 9 9 9 10 10 9 10 10 10 10 10 9 8 7 6 6 7 9 7 7 7 8 9 9 9 10 10 10 9 9 8 8 9 9 8 9 8 8
6 7 6 8 7 7 8 9 9 10 10 9 9 9 9 9 8 7 6 5 5 6 6 7 8 8 7 8 9 9 9 9 9 9 9 9 9 8 8 8 9 9 8 8
6 7 6 9 9 9 8 7 10 10 9 9 9 7 7 7 6 5 5 4 4 4 6 6 6 6 4 6 8 8 9 9 9 9 9 9 9 8 8 8 8 8 8 8
5 6 8 8 8 8 8 9 9 9 9 9 8 8 5 4 3 3 4 5 4 4 4 5 7 7 3 6 7 7 8 8 8 8 9 9 9 9 8 8 8 8 8 8
5 5 6 8 9 8 8 9 8 9 8 8 8 7 7 4 4 4 4 4 4 5 5 5 5 5 7 7 6 5 6 7 7 9 8 9 9 9 10 9 8 7 8 8
4 4 6 8 8 8 9 8 7 7 7 6 6 5 4 4 4 3 3 3 3 4 4 4 4 3 4 4 6 5 5 5 6 7 7 7 8 9 9 9 9 8 7 7
4 4 4 6 8 8 7 6 7 7 6 5 3 3 4 2 1 1 1 2 2 2 2 2 3 3 3 2 2 3 4 4 5 6 8 8 9 9 9 8 9 8 8 7
4 5 4 4 4 4 6 7 6 6 4 3 2 1 0 0 0 0 1 1 1 1 1 1 1 0 1 0 1 2 3 4 4 5 6 7 8 8 8 8 8 8 7 6
2 4 4 3 3 3 3 4 5 5 4 4 2 0 -0 -1 -1 0 0 1 0 0 0 0 0 -0 -1 -2 -2 0 1 1 2 3 4 4 5 5 6 6 5 5 4 3
3 4 3 1 2 2 1 4 3 3 3 1 0 -2 -2 -2 -2 -2 -1 -1 -1 -1 -1 -1 -1 -2 -1 -1 -2 -1 -1 0 -0 1 1 1 2 1 1 2 2 2 0 -1
2 -1 1 -2 -1 0 0 0 1 3 1 -0 0 -0 -1 -2 -4 -3 -2 -2 -1 -2 -2 -2 -2 -2 -3 -3 -4 -4 -3 -2 -2 -2 -1 -2 -2 -2 -2 -2 -2 -2 -1 -1
-2 -2 -3 -2 -2 -2 -2 -2 -1 0 -1 -1 -1 -1 -2 -3 -4 -3 -3 -2 -1 -2 -3 -3 -3 -3 -3 -4 -5 -5 -4 -4 -4 -4 -5 -5 -5 -5 -6 -7 -6 -5 -5 -4
-2 -1 -2 -3 -4 -2 -2 -2 -2 -2 -2 -2 -3 -3 -3 -3 -3 -3 -3 -4 -3 -3 -3 -3 -3 -4 -5 -6 -6 -5 -5 -5 -5 -5 -5 -6 -7 -7 -8 -8 -9 -9 -8 -7
-4 -4 -4 -4 -4 -4 -3 -3 -3 -3 -4 -3 -4 -4 -4 -4 -3 -4 -4 -5 -5 -5 -4 -4 -4 -4 -5 -5 -6 -6 -6 -6 -6 -6 -6 -7 -7 -8 -8 -8 -9 -9 -9 -8
-5 -4 -6 -7 -7 -6 -6 -5 -5 -5 -5 -5 -4 -4 -4 -4 -5 -5 -5 -5 -6 -5 -6 -5 -5 -5 -5 -6 -6 -6 -7 -7 -7 -7 -7 -7 -7 -7 -7 -7 -7 -8 -8 -8
-6 -6 -7 -8 -8 -8 -8 -8 -7 -6 -6 -5 -5 -5 -5 -5 -5 -6 -6 -6 -6 -6 -7 -7 -6 -6 -6 -7 -7 -7 -7 -8 -7 -7 -7 -7 -7 -7 -7 -7 -7 -8 -9 -9
-9 -9 -9 -9 -9 -10 -8 -7 -7 -7 -7 -6 -6 -6 -6 -6 -7 -7 -8 -8 -8 -7 -7 -7 -7 -7 -7 -7 -7 -7 -8 -8 -7 -7 -7 -7 -7 -7 -7 -7 -7 -7 -8 -9
-9 -9 -10 -9 -9 -11 -10 -9 -8 -8 -8 -7 -7 -7 -8 -8 -8 -8 -9 -9 -9 -8 -8 -8 -8 -7 -7 -7 -7 -7 -7 -7 -7 -7 -7 -7 -7 -8 -7 -7 -7 -8 -9 -10
-9 -9 -10 -10 -10 -9 -10 -10 -10 -10 -9 -9 -9 -9 -9 -9 -10 -10 -10 -9 -9 -10 -10 -9 -9 -9 -8 -8 -8 -8 -7 -7 -7 -7 -7 -8 -8 -8 -8 -9 -9 -10 -10 -11
-10 -10 -10 -10 -11 -11 -11 -11 -11 -11 -11 -11 -11 -11 -11 -11 -11 -11 -11 -10 -10 -11 -10 -10 -10 -9 -9 -9 -8 -8 -8 -8 -8 -8 -8 -8 -9 -9 -9 -10 -10 -11 -11 -11
-11 -11 -12 -12 -12 -12 -12 -12 -12 -12 -12 -12 -12 -12 -12 -12 -12 -11 -11 -11 -12 -12 -11 -11 -10 -10 -10 -9 -9 -9 -9 -9 -9 -9 -9 -9 -10 -10 -11 -11 -11 -12 -12 -13
-12 -12 -12 -13 -12 -13 -13 -13 -13 -13 -13 -13 -13 -13 -13 -13 -13 -13 -12 -13 -13 -12 -12 -12 -12 -11 -11 -10 -11 -10 -10 -10 -10 -10 -10 -11 -11 -11 -12 -12 -12 -13 -13 -13
-13 -13 -14 -14 -14 -15 -14 -14 -14 -14 -14 -14 -14 -14 -14 -14 -13 -14 -14 -14 -14 -13 -13 -13 -13 -13 -12 -12 -12 -11 -11 -11 -11 -11 -12 -12 -12 -12 -13 -13 -13 -13 -14 -14
-13 -14 -14 -15 -15 -15 -15 -15 -15 -15 -15 -15 -15 -15 -15 -14 -14 -15 -15 -15 -14 -14 -14 -14 -14 -14 -13 -12 -12 -12 -12 -12 -12 -12 -13 -13 -13 -13 -14 -14 -14 -14 -15 -15
-14 -14 -15 -15 -15 -15 -15 -15 -15 -15 -15 -15 -15 -16 -15 -15 -15 -15 -15 -15 -15 -15 -15 -15 -15 -14 -14 -14 -14 -14 -14 -13 -13 -14 -14 -14 -14 -14 -14 -15 -15 -15 -15 -15
-14 -14 -14 -15 -15 -15 -15 -15 -15 -15 -15 -16 -16 -16 -16 -16 -16 -16 -16 -16 -16 -15 -15 -15 -16 -16 -15 -15 -15 -15 -15 -14 -15 -14 -15 -15 -15 -15 -15 -15 -16 -16 -16 -16

GFSNGP_850_temp_114.txt.gz
Temp
6 7 10 9 8 7 10 13 14 16 16 17 16 15 15 14 13 13 12 11 9 8 5 5 8 7 7 8 9 9 9 9 9 9 9 10 9 9 10 9 9 9 9 9
7 7 10 10 9 10 10 10 14 14 16 18 17 15 14 13 13 12 10 9 8 7 6 6 6 8 7 6 7 8 9 9 9 9 9 9 9 9 9 9 9 9 9 9
7 9 8 9 9 11 11 12 12 12 15 14 15 14 13 13 12 10 8 7 7 5 4 5 6 6 7 7 6 6 8 9 9 9 9 9 9 9 9 9 9 9 9 9
7 9 6 9 11 11 11 11 12 13 13 11 10 8 8 9 8 8 7 6 5 4 4 4 6 6 7 7 6 5 7 8 8 9 9 9 8 8 8 9 9 9 9 9
6 8 10 8 9 9 9 10 10 12 11 9 8 8 6 6 5 4 4 4 3 3 2 2 4 3 6 7 7 6 7 7 8 8 8 9 9 9 8 8 9 9 9 9
7 6 7 8 10 10 10 8 10 11 11 10 11 10 7 4 4 3 3 2 2 2 1 0 1 0 4 5 5 6 6 6 7 8 9 8 8 9 9 8 8 8 8 8
7 6 8 8 9 10 8 8 8 9 6 8 8 4 3 2 2 2 1 1 1 1 -0 -1 -2 -1 -0 0 4 2 2 3 5 6 7 8 8 8 8 9 9 8 8 8
6 6 6 7 9 7 7 7 5 6 6 6 4 2 1 1 1 1 1 -0 -0 -0 -1 -2 -1 -2 -3 0 -0 0 1 2 4 5 5 7 8 8 8 8 9 8 8 8
5 8 8 6 5 4 4 6 5 6 7 5 3 3 1 -0 -1 -2 -1 -2 -2 -2 -2 -3 -3 -2 -3 -2 -2 -0 0 1 1 3 4 5 7 7 8 8 8 8 7 7
3 4 2 0 2 3 2 3 4 4 4 3 2 1 1 0 -1 -2 -2 -2 -2 -3 -3 -4 -4 -4 -3 -3 -3 -1 -0 0 0 2 2 3 5 5 5 6 6 6 5 5
3 2 0 -1 -1 0 0 -0 0 1 1 1 1 0 -1 -2 -3 -3 -4 -4 -4 -4 -5 -6 -5 -3 -2 -3 -3 -2 -1 -1 -1 -0 1 1 2 1 1 1 2 3 3 2
1 -1 -1 -2 -2 -2 -0 -1 -1 -1 -1 -2 -2 -2 -3 -4 -4 -4 -5 -5 -5 -4 -5 -5 -4 -4 -4 -4 -4 -3 -2 -2 -2 -2 -2 -2 -2 -1 -2 -1 -1 -1 -1 -0
-2 -2 -3 -3 -3 -3 -2 -2 -2 -2 -2 -2 -4 -4 -4 -5 -3 -3 -3 -4 -3 -4 -4 -4 -4 -4 -5 -5 -5 -4 -4 -4 -5 -5 -4 -4 -4 -4 -4 -5 -5 -4 -4 -4
-3 -2 -2 -4 -4 -3 -3 -3 -2 -4 -3 -3 -4 -5 -5 -4 -3 -3 -3 -4 -5 -4 -4 -5 -5 -5 -6 -6 -5 -5 -6 -6 -6 -6 -6 -6 -7 -7 -7 -8 -9 -10 -9 -8
-4 -5 -5 -5 -5 -4 -4 -3 -4 -4 -4 -3 -3 -5 -5 -5 -4 -3 -4 -4 -5 -5 -5 -5 -5 -6 -6 -6 -6 -6 -6 -7 -7 -7 -7 -7 -7 -9 -9 -9 -8 -9 -9 -8
-4 -5 -5 -6 -5 -6 -6 -5 -5 -5 -4 -4 -4 -4 -4 -5 -5 -4 -5 -4 -4 -4 -5 -6 -6 -6 -7 -7 -6 -6 -6 -7 -8 -8 -9 -9 -9 -9 -10 -10 -10 -9 -9 -9
-5 -5 -6 -7 -7 -7 -7 -8 -7 -7 -7 -7 -6 -6 -5 -5 -6 -6 -6 -6 -6 -6 -6 -6 -7 -7 -7 -7 -7 -7 -7 -8 -9 -9 -10 -10 -10 -10 -10 -9 -8 -8 -8 -9
-8 -8 -8 -9 -9 -8 -9 -9 -9 -8 -8 -7 -7 -6 -6 -7 -7 -7 -7 -7 -7 -7 -6 -6 -7 -7 -7 -7 -7 -8 -8 -8 -8 -8 -9 -9 -10 -9 -9 -8 -9 -9 -9 -10
-10 -10 -10 -11 -11 -11 -10 -10 -9 -9 -8 -8 -8 -8 -8 -8 -8 -8 -8 -9 -8 -9 -8 -7 -7 -7 -7 -7 -7 -7 -7 -7 -7 -8 -8 -8 -8 -9 -9 -9 -9 -9 -10 -10
-11 -12 -11 -11 -11 -10 -10 -10 -10 -10 -10 -10 -10 -9 -9 -9 -10 -10 -10 -9 -9 -9 -9 -8 -8 -8 -7 -8 -8 -7 -7 -8 -8 -8 -8 -8 -8 -9 -10 -10 -10 -10 -10 -10
-11 -12 -12 -12 -12 -12 -12 -12 -12 -11 -11 -11 -10 -10 -10 -11 -11 -11 -12 -12 -11 -10 -10 -10 -9 -9 -9 -9 -9 -8 -8 -8 -8 -9 -9 -8 -9 -9 -10 -10 -10 -10 -11 -11
-12 -12 -12 -12 -12 -12 -12 -12 -12 -12 -12 -12 -12 -12 -12 -12 -12 -12 -12 -13 -12 -12 -11 -11 -10 -10 -9 -9 -9 -9 -9 -9 -9 -9 -9 -10 -10 -10 -11 -11 -11 -12 -12 -12
-12 -13 -13 -13 -13 -13 -13 -13 -13 -13 -13 -13 -13 -13 -14 -13 -13 -14 -13 -13 -13 -12 -12 -12 -11 -11 -11 -10 -10 -11 -10 -10 -10 -10 -10 -11 -11 -11 -12 -12 -12 -12 -12 -13
-12 -13 -13 -13 -14 -14 -14 -14 -14 -14 -14 -14 -14 -14 -15 -15 -15 -15 -14 -14 -13 -13 -13 -13 -13 -12 -12 -12 -12 -12 -11 -11 -11 -11 -12 -12 -12 -12 -12 -13 -13 -13 -13 -13
-13 -13 -13 -13 -14 -15 -14 -14 -14 -14 -14 -15 -14 -14 -14 -14 -15 -15 -15 -15 -14 -14 -14 -14 -14 -13 -13 -13 -13 -13 -12 -12 -12 -12 -12 -12 -13 -13 -13 -14 -14 -14 -14 -14
-14 -14 -15 -14 -15 -16 -16 -16 -16 -16 -16 -16 -16 -16 -15 -15 -15 -15 -15 -15 -15 -15 -14 -15 -14 -14 -14 -14 -13 -13 -13 -13 -13 -13 -13 -13 -14 -14 -14 -14 -14 -15 -15 -15
-14 -15 -15 -15 -16 -16 -16 -16 -16 -17 -17 -17 -17 -17 -17 -16 -16 -16 -16 -16 -15 -15 -15 -15 -15 -15 -15 -15 -15 -15 -15 -15 -15 -15 -15 -14 -14 -15 -15 -15 -15 -15 -15 -16

GFSNGP_850_temp_117.txt.gz
Temp
8 10 9 10 9 11 12 12 14 16 18 18 19 19 18 16 16 15 13 12 11 9 7 6 6 7 7 7 8 9 9 9 9 9 9 10 10 10 9 9 10 9 9 9
8 10 10 9 9 9 12 13 15 16 15 18 15 16 18 17 16 13 13 12 10 9 8 6 6 6 6 7 7 8 9 9 9 9 9 10 9 9 9 9 9 9 9 9
8 10 8 8 9 11 10 11 13 13 16 16 18 10 16 15 12 11 11 10 9 8 7 6 5 6 6 6 7 6 7 9 9 9 9 9 9 9 9 9 9 9 9 9
7 9 7 9 12 10 11 12 12 11 10 11 13 9 9 9 9 9 9 8 7 7 6 5 5 4 5 6 6 6 6 6 8 8 9 9 9 9 9 9 9 9 9 9
7 8 9 9 11 11 10 11 11 12 12 10 8 9 7 7 7 7 7 7 6 5 5 4 4 3 3 5 5 5 6 5 6 6 8 9 9 9 9 9 9 9 8 8
8 7 7 9 10 11 12 9 8 8 10 9 9 8 5 6 6 6 5 5 5 4 3 2 2 2 2 2 4 4 5 5 5 5 7 8 8 9 8 8 8 9 8 8
8 8 10 10 10 10 8 6 7 3 7 6 5 3 3 4 5 5 4 3 4 3 2 1 0 1 1 -0 3 3 3 3 2 5 6 7 8 8 9 9 8 8 8 9
8 8 7 6 8 5 4 5 3 4 5 6 5 4 2 2 3 3 3 3 3 2 1 -0 -1 -1 -1 -2 -1 0 3 6 5 5 5 6 7 7 8 8 9 8 8 8
4 5 4 1 1 3 3 3 2 4 6 5 3 3 2 2 2 1 1 1 1 1 -0 -2 -2 -3 -3 -4 -3 -1 -0 1 2 4 5 5 6 7 7 8 8 8 8 7
4 5 1 -1 -1 -1 -0 0 0 3 4 4 4 3 2 1 1 1 -0 -1 -1 -1 -2 -3 -3 -4 -5 -5 -4 -2 -1 1 1 1 3 3 5 5 5 5 6 6 6 5
4 4 2 1 -2 -2 -2 -1 -1 -0 2 3 2 1 1 -0 -1 -1 -2 -2 -3 -3 -4 -4 -5 -6 -6 -6 -5 -4 -3 -3 -2 -1 -0 1 2 2 2 2 2 3 3 3
1 -1 -1 -1 -2 -3 -3 -3 -2 -1 -1 0 0 -0 -1 -3 -4 -4 -5 -5 -6 -6 -6 -7 -7 -6 -4 -5 -5 -5 -4 -4 -4 -4 -3 -3 -2 -2 -2 -2 -1 -1 -1 -0
-2 -3 -2 -3 -2 -3 -3 -3 -3 -3 -3 -3 -2 -3 -4 -5 -5 -5 -4 -4 -5 -5 -6 -7 -6 -5 -5 -5 -5 -6 -5 -6 -6 -6 -6 -7 -6 -5 -6 -6 -5 -4 -4 -3
-2 -2 -2 -4 -4 -4 -3 -3 -3 -3 -3 -4 -4 -3 -4 -5 -6 -5 -5 -5 -6 -6 -6 -6 -6 -6 -6 -7 -7 -6 -6 -6 -6 -7 -7 -7 -8 -8 -8 -8 -9 -9 -9 -7
-1 -2 -3 -3 -3 -4 -4 -4 -3 -3 -4 -4 -5 -4 -4 -5 -6 -7 -7 -8 -8 -7 -6 -6 -6 -7 -7 -7 -7 -7 -7 -7 -7 -7 -8 -8 -8 -8 -9 -8 -9 -10 -10 -9
-2 -2 -3 -3 -3 -3 -4 -5 -5 -4 -5 -5 -6 -6 -6 -6 -7 -8 -9 -7 -7 -8 -8 -7 -7 -7 -8 -8 -8 -8 -8 -9 -9 -9 -9 -9 -9 -9 -10 -10 -10 -10 -10 -10
-3 -3 -5 -5 -5 -5 -5 -6 -7 -7 -6 -7 -7 -6 -7 -8 -8 -7 -7 -8 -8 -8 -8 -8 -8 -7 -8 -9 -9 -9 -9 -9 -9 -9 -10 -10 -10 -10 -10 -10 -11 -10 -10 -10
-6 -6 -7 -8 -8 -7 -7 -8 -9 -9 -9 -9 -8 -7 -7 -7 -8 -8 -8 -9 -10 -9 -9 -9 -9 -8 -8 -9 -9 -9 -10 -10 -10 -10 -10 -10 -10 -11 -11 -10 -10 -10 -11 -11
-8 -8 -9 -10 -11 -10 -11 -11 -11 -11 -9 -9 -9 -9 -9 -9 -9 -9 -9 -9 -10 -11 -10 -9 -9 -9 -8 -8 -10 -9 -10 -10 -10 -10 -10 -10 -10 -11 -11 -11 -11 -12 -12 -12
-9 -10 -11 -11 -10 -10 -12 -12 -11 -12 -10 -11 -11 -11 -11 -10 -10 -10 -11 -10 -10 -11 -10 -9 -10 -9 -9 -9 -10 -9 -9 -9 -9 -9 -9 -10 -10 -11 -12 -12 -13 -13 -13 -13
-11 -11 -12 -13 -13 -11 -11 -12 -12 -12 -12 -11 -12 -12 -11 -11 -10 -11 -11 -11 -12 -11 -11 -10 -10 -10 -9 -10 -10 -9 -9 -9 -10 -10 -10 -10 -12 -13 -13 -13 -14 -14 -15 -14
-13 -12 -12 -13 -14 -15 -14 -14 -13 -13 -12 -12 -12 -12 -12 -12 -12 -12 -12 -13 -14 -12 -12 -10 -10 -10 -10 -10 -10 -10 -10 -10 -10 -11 -12 -13 -13 -13 -14 -14 -15 -15 -15 -15
-13 -13 -14 -13 -14 -15 -15 -15 -14 -15 -15 -14 -14 -14 -14 -14 -14 -13 -13 -13 -14 -12 -12 -11 -11 -11 -11 -11 -11 -11 -11 -11 -12 -13 -13 -14 -14 -14 -15 -15 -16 -16 -16 -16
-13 -14 -14 -14 -14 -14 -14 -15 -15 -15 -15 -15 -14 -14 -14 -13 -14 -15 -15 -15 -14 -13 -13 -13 -13 -12 -12 -12 -12 -13 -13 -14 -14 -14 -15 -15 -15 -16 -16 -16 -16 -16 -15 -14
-13 -13 -13 -13 -12 -12 -13 -14 -13 -14 -14 -15 -15 -15 -15 -15 -15 -16 -16 -16 -15 -16 -14 -14 -14 -14 -14 -14 -14 -14 -15 -15 -15 -15 -16 -16 -16 -16 -16 -15 -15 -14 -13 -13
-13 -13 -13 -14 -14 -14 -13 -13 -13 -14 -14 -14 -15 -15 -16 -16 -16 -16 -16 -16 -16 -16 -15 -15 -15 -15 -15 -15 -15 -15 -16 -16 -16 -16 -16 -16 -16 -15 -14 -14 -14 -14 -14 -14
-13 -13 -13 -13 -14 -14 -15 -15 -14 -14 -15 -15 -15 -16 -16 -16 -16 -16 -17 -17 -17 -17 -16 -16 -15 -16 -16 -16 -16 -15 -15 -15 -15 -15 -15 -15 -14 -14 -14 -14 -14 -14 -14 -15